• In Russia
  • List of Countries
  • For 7 days
  • Water Temperature
  • Satellite Maps
  • Weather Map
  • Weather Widgets
  • user-avatar
    Login

    Hourly Weather Kisujszallas

    Today, 13 December, Wednesday

    Time Temperature Precipitation Wind Pressure Humidity
    00:00 +8°C° 0.3 mm 3 mps 753 mmHg 87%
    01:00 +8°C° 0 mm 3 mps 753 mmHg 87%
    02:00 +7°C° 0.5 mm 3 mps 753 mmHg 85%
    03:00 +7°C° 0.5 mm 3 mps 753 mmHg 84%
    04:00 +7°C° 0.5 mm 3 mps 753 mmHg 82%
    05:00 +5°C° 0.5 mm 3 mps 754 mmHg 82%
    06:00 +5°C° 0.5 mm 3 mps 754 mmHg 81%
    07:00 +5°C° 0.5 mm 3 mps 754 mmHg 81%
    08:00 +5°C° 0.5 mm 3 mps 754 mmHg 80%
    09:00 +5°C° 0.5 mm 3 mps 755 mmHg 79%
    10:00 +5°C° 0.5 mm 3 mps 755 mmHg 79%
    11:00 +6°C° 0.2 mm 2 mps 755 mmHg 77%
    12:00 +6°C° 0.2 mm 2 mps 755 mmHg 75%
    13:00 +6°C° 0.2 mm 2 mps 754 mmHg 74%
    14:00 +6°C° 0.1 mm 2 mps 754 mmHg 75%
    15:00 +6°C° 0.1 mm 1 mps 754 mmHg 77%
    16:00 +6°C° 0.1 mm 1 mps 754 mmHg 79%
    17:00 +6°C° 0 mm 1 mps 754 mmHg 80%
    18:00 +5°C° 0 mm 1 mps 754 mmHg 81%
    19:00 +5°C° 0 mm 1 mps 754 mmHg 82%
    20:00 +4°C° 0 mm 1 mps 753 mmHg 83%
    21:00 +3°C° 0 mm 2 mps 753 mmHg 84%
    22:00 +3°C° 0 mm 2 mps 753 mmHg 84%
    23:00 +2°C° 0 mm 2 mps 753 mmHg 85%

    Tomorrow, 14 December, Thursday

    Time Temperature Precipitation Wind Pressure Humidity
    00:00 +2°C° 0 mm 2 mps 752 mmHg 85%
    01:00 +2°C° 0 mm 2 mps 752 mmHg 85%
    02:00 +1°C° 0 mm 3 mps 751 mmHg 85%
    03:00 0°C° 0 mm 4 mps 751 mmHg 85%
    04:00 0°C° 0 mm 5 mps 750 mmHg 84%
    05:00 0°C° 0 mm 5 mps 750 mmHg 85%
    06:00 -1°C° 0 mm 6 mps 749 mmHg 86%
    07:00 -1°C° 0 mm 6 mps 749 mmHg 86%
    08:00 0°C° 0 mm 7 mps 749 mmHg 82%
    09:00 +3°C° 0 mm 7 mps 749 mmHg 78%
    10:00 +4°C° 0 mm 7 mps 749 mmHg 74%
    11:00 +4°C° 0.1 mm 7 mps 748 mmHg 74%
    12:00 +5°C° 0.1 mm 7 mps 748 mmHg 75%
    13:00 +5°C° 0.1 mm 7 mps 748 mmHg 75%
    14:00 +5°C° 0.3 mm 6 mps 749 mmHg 79%
    15:00 +6°C° 0.3 mm 5 mps 749 mmHg 83%
    16:00 +5°C° 0.3 mm 4 mps 749 mmHg 87%
    17:00 +5°C° 0.1 mm 4 mps 749 mmHg 88%
    18:00 +5°C° 0.1 mm 4 mps 749 mmHg 89%
    19:00 +4°C° 0.1 mm 3 mps 749 mmHg 90%
    20:00 +4°C° 0.7 mm 3 mps 749 mmHg 89%
    21:00 +5°C° 0.7 mm 2 mps 749 mmHg 88%
    22:00 +5°C° 0.7 mm 2 mps 749 mmHg 87%
    23:00 +5°C° 0.2 mm 2 mps 748 mmHg 86%

    Day after tomorrow, 15 December, Friday

    Time Temperature Precipitation Wind Pressure Humidity
    00:00 +5°C° 0.2 mm 2 mps 748 mmHg 85%
    01:00 +5°C° 0.2 mm 2 mps 747 mmHg 84%
    02:00 +4°C° 0.1 mm 3 mps 747 mmHg 86%
    03:00 +4°C° 0.1 mm 4 mps 746 mmHg 88%
    04:00 +4°C° 0.1 mm 4 mps 745 mmHg 90%
    05:00 +5°C° 0.1 mm 5 mps 745 mmHg 88%
    06:00 +5°C° 0.1 mm 6 mps 745 mmHg 86%
    07:00 +7°C° 0.1 mm 6 mps 745 mmHg 84%
    08:00 +6°C° 0.5 mm 7 mps 745 mmHg 82%
    09:00 +8°C° 0.5 mm 7 mps 744 mmHg 80%
    10:00 +7°C° 0.5 mm 8 mps 744 mmHg 77%
    11:00 +9°C° 0.6 mm 8 mps 744 mmHg 78%
    12:00 +9°C° 0.6 mm 7 mps 744 mmHg 78%
    13:00 +9°C° 0.6 mm 7 mps 744 mmHg 78%
    14:00 +8°C° 0.3 mm 5 mps 744 mmHg 81%
    15:00 +7°C° 0.3 mm 4 mps 744 mmHg 83%
    16:00 +8°C° 0.3 mm 2 mps 744 mmHg 85%
    17:00 +7°C° 0.3 mm 2 mps 744 mmHg 86%
    18:00 +7°C° 0.3 mm 2 mps 744 mmHg 86%
    19:00 +7°C° 0.3 mm 2 mps 743 mmHg 86%
    20:00 +7°C° 2.2 mm 3 mps 743 mmHg 87%
    21:00 +6°C° 2.2 mm 4 mps 742 mmHg 87%
    22:00 +5°C° 2.2 mm 5 mps 741 mmHg 88%
    23:00 +6°C° 2.2 mm 5 mps 741 mmHg 87%

    16 December, Saturday

    Time Temperature Precipitation Wind Pressure Humidity
    00:00 +6°C° 2.2 mm 5 mps 741 mmHg 87%
    01:00 +6°C° 2.2 mm 5 mps 740 mmHg 86%
    02:00 +6°C° 0.2 mm 5 mps 740 mmHg 86%
    03:00 +5°C° 0.2 mm 4 mps 741 mmHg 86%
    04:00 +5°C° 0.2 mm 4 mps 741 mmHg 87%
    05:00 +4°C° 0.2 mm 3 mps 741 mmHg 87%
    06:00 +4°C° 0.2 mm 3 mps 742 mmHg 87%
    07:00 +5°C° 0.2 mm 2 mps 743 mmHg 87%
    08:00 +4°C° 0.1 mm 3 mps 743 mmHg 86%
    09:00 +4°C° 0.1 mm 3 mps 744 mmHg 84%
    10:00 +4°C° 0.1 mm 3 mps 745 mmHg 82%
    11:00 +4°C° 0 mm 3 mps 746 mmHg 80%
    12:00 +4°C° 0 mm 3 mps 746 mmHg 77%
    13:00 +4°C° 0 mm 3 mps 747 mmHg 75%
    14:00 +4°C° 0 mm 3 mps 747 mmHg 76%
    15:00 +4°C° 0 mm 3 mps 748 mmHg 77%
    16:00 +4°C° 0 mm 2 mps 749 mmHg 78%
    17:00 +4°C° 0 mm 2 mps 749 mmHg 80%
    18:00 +3°C° 0 mm 2 mps 750 mmHg 82%
    19:00 +2°C° 0 mm 3 mps 750 mmHg 84%
    20:00 +3°C° 0 mm 2 mps 750 mmHg 84%
    21:00 +2°C° 0 mm 2 mps 751 mmHg 84%
    22:00 +2°C° 0 mm 2 mps 751 mmHg 84%
    23:00 +1°C° 0 mm 3 mps 751 mmHg 84%

    17 December, Sunday

    Time Temperature Precipitation Wind Pressure Humidity
    00:00 +1°C° 0 mm 3 mps 751 mmHg 83%
    01:00 +1°C° 0 mm 3 mps 751 mmHg 83%
    02:00 +1°C° 0 mm 3 mps 752 mmHg 83%
    03:00 0°C° 0 mm 3 mps 752 mmHg 83%
    04:00 0°C° 0 mm 3 mps 752 mmHg 83%
    05:00 0°C° 0 mm 3 mps 752 mmHg 83%
    06:00 0°C° 0 mm 3 mps 753 mmHg 84%
    07:00 0°C° 0 mm 3 mps 753 mmHg 84%
    08:00 0°C° 0 mm 3 mps 753 mmHg 81%
    09:00 +1°C° 0 mm 3 mps 754 mmHg 78%
    10:00 0°C° 0 mm 4 mps 754 mmHg 75%
    11:00 +1°C° 0 mm 4 mps 754 mmHg 72%
    12:00 +3°C° 0 mm 4 mps 754 mmHg 68%
    13:00 +3°C° 0 mm 4 mps 754 mmHg 65%
    14:00 +3°C° 0 mm 3 mps 755 mmHg 68%
    15:00 +2°C° 0 mm 3 mps 755 mmHg 70%
    16:00 +3°C° 0 mm 2 mps 756 mmHg 73%
    17:00 +3°C° 0 mm 2 mps 756 mmHg 75%
    18:00 +2°C° 0 mm 2 mps 757 mmHg 77%
    19:00 +2°C° 0 mm 2 mps 758 mmHg 79%
    20:00 +2°C° 0 mm 2 mps 758 mmHg 79%
    21:00 +1°C° 0 mm 2 mps 758 mmHg 80%
    22:00 +1°C° 0 mm 2 mps 759 mmHg 80%
    23:00 +1°C° 0 mm 2 mps 759 mmHg 81%

    18 December, Monday

    Time Temperature Precipitation Wind Pressure Humidity
    00:00 +1°C° 0 mm 2 mps 759 mmHg 81%
    01:00 +1°C° 0 mm 2 mps 760 mmHg 81%
    02:00 +1°C° 0 mm 2 mps 760 mmHg 81%
    03:00 -1°C° 0 mm 2 mps 760 mmHg 82%
    04:00 -1°C° 0 mm 2 mps 760 mmHg 82%
    05:00 -1°C° 0.1 mm 2 mps 761 mmHg 82%
    06:00 -1°C° 0.1 mm 2 mps 761 mmHg 82%
    07:00 +1°C° 0.1 mm 1 mps 761 mmHg 82%
    08:00 -1°C° 0.1 mm 2 mps 761 mmHg 79%
    09:00 +1°C° 0.1 mm 2 mps 761 mmHg 76%
    10:00 +1°C° 0.1 mm 2 mps 762 mmHg 73%
    11:00 +1°C° 0.1 mm 2 mps 761 mmHg 71%
    12:00 +2°C° 0.1 mm 2 mps 761 mmHg 68%
    13:00 +2°C° 0.1 mm 2 mps 761 mmHg 66%
    14:00 +2°C° 0 mm 2 mps 761 mmHg 69%
    15:00 +2°C° 0 mm 1 mps 761 mmHg 71%
    16:00 +2°C° 0 mm 1 mps 760 mmHg 74%
    17:00 +1°C° 0 mm 1 mps 761 mmHg 75%
    18:00 +1°C° 0 mm 1 mps 761 mmHg 77%
    19:00 +1°C° 0 mm 1 mps 761 mmHg 78%
    20:00 +1°C° 0 mm 1 mps 761 mmHg 79%
    21:00 0°C° 0 mm 1 mps 761 mmHg 80%
    22:00 0°C° 0 mm 1 mps 761 mmHg 81%
    23:00 0°C° 0 mm 1 mps 761 mmHg 81%
    Show more